{"data":{"norad_id":67284,"epoch":"2026-05-25T03:56:42.425088Z","epoch_age_seconds":67660,"freshness":"FRESH","line1":"1 67284U 25313AN  26145.16437992  .00005300  00000+0  23048-3 0  9997","line2":"2 67284  97.3924 220.2174 0012339  83.1208 277.1432 15.22620330 22454","mean_motion":15.2262033,"eccentricity":0.0012339,"inclination_deg":97.3924,"raan_deg":220.2174,"arg_perigee_deg":83.1208,"mean_anomaly_deg":277.1432,"bstar":0.00023048,"rev_number":2245,"period_min":94.573806196322,"perigee_km":489.45603795223,"apogee_km":506.42482183372,"semimajor_km":6876.077429893,"source":"CELESTRAK","updated_at":"2026-05-25T13:38:06.854389Z"}}